DW8151 Weather Reports


time (UTC)temp
C
wind
direction
speed
KPH
gust
KPH
rain 1hr
cm
rain 24hr
cm
rain mn
cm
humidity
%
barometer
mb
20260507143134 11 316 3.2 0.0 0.00 0.00 0.00 68 1017.6
20260507140131 10 360 3.2 0.0 0.00 0.00 0.00 69 1017.3
20260507133119 10 22 1.6 0.0 0.00 0.00 0.00 70 1017.3
20260507130152 10 360 3.2 0.0 0.00 0.00 0.00 69 1017.3
20260507123131 11 10 1.6 0.0 0.00 0.00 0.00 70 1017.4
20260507120132 11 10 3.2 0.0 0.00 0.00 0.00 69 1017.6
20260507113142 11 299 1.6 0.0 0.00 0.00 0.00 69 1017.6
20260507110140 11 333 1.6 0.0 0.00 0.00 0.00 69 1017.7
20260507103153 11 284 1.6 0.0 0.00 0.00 0.00 69 1017.8
20260507100120 12 13 1.6 0.0 0.00 0.00 0.00 69 1018.0
20260507093128 12 30 3.2 0.0 0.00 0.00 0.00 69 1018.2
20260507090120 12 348 3.2 0.0 0.00 0.00 0.00 70 1018.3
20260507083123 12 16 1.6 0.0 0.00 0.00 0.00 70 1018.3
20260507080114 12 350 1.6 0.0 0.00 0.00 0.00 71 1018.3
20260507073121 12 351 3.2 0.0 0.00 0.00 0.00 72 1018.2
20260507070120 12 313 3.2 0.0 0.00 0.00 0.00 71 1018.2
20260507063125 12 284 3.2 0.0 0.00 0.00 0.00 72 1018.3
20260507060142 12 347 3.2 0.0 0.00 0.00 0.00 72 1018.3
20260507053126 13 28 3.2 0.0 0.00 0.00 0.00 69 1018.2
20260507050113 13 348 6.4 0.0 0.00 0.00 0.00 68 1018.3
20260507043114 13 323 6.4 0.0 0.00 0.00 0.00 68 1018.0
20260507040127 14 327 6.4 0.0 0.00 0.00 0.00 68 1017.7
20260507033114 15 312 3.2 0.0 0.00 0.00 0.00 68 1017.2
20260507030118 15 360 3.2 0.0 0.00 0.00 0.00 66 1016.9
20260507023126 16 313 4.8 0.0 0.00 0.00 0.00 63 1016.8
20260507020125 17 300 6.4 0.0 0.00 0.00 0.00 61 1016.9
20260507013129 18 25 6.4 0.0 0.00 0.00 0.00 60 1016.8
20260507010115 18 327 3.2 0.0 0.00 0.00 0.00 63 1016.7
20260507003120 18 5 4.8 0.0 0.00 0.00 0.00 63 1016.7
20260507000131 19 27 6.4 0.0 0.00 0.00 0.00 60 1016.7
20260506233142 19 56 4.8 0.0 0.00 0.00 0.00 60 1016.7
20260506230131 19 42 3.2 0.0 0.00 0.00 0.00 57 1016.9
20260506223151 19 316 3.2 0.0 0.00 0.00 0.00 58 1017.3
20260506220122 20 218 1.6 0.0 0.00 0.00 0.00 58 1017.3
20260506213150 18 302 1.6 0.0 0.00 0.00 0.00 62 1017.7
20260506210113 17 360 3.2 0.0 0.00 0.00 0.00 67 1017.8
20260506203122 16 10 3.2 0.0 0.00 0.00 0.00 69 1017.7
20260506200200 16 40 3.2 0.0 0.00 0.00 0.00 69 1017.9
20260506193114 16 34 3.2 0.0 0.00 0.00 0.00 70 1017.9
20260506190126 16 265 1.6 0.0 0.00 0.00 0.00 70 1017.8
20260506183127 15 5 3.2 0.0 0.00 0.00 0.00 72 1017.8
20260506180117 15 5 3.2 0.0 0.00 0.00 0.00 72 1017.8
20260506173121 15 311 0.0 0.0 0.00 0.00 0.00 73 1017.7
20260506170134 15 350 3.2 0.0 0.00 0.00 0.00 74 1017.5
20260506163136 14 342 1.6 0.0 0.00 0.00 0.00 73 1017.3
20260506160119 13 128 0.0 0.0 0.00 0.00 0.00 77 1016.8
20260506153116 13 24 1.6 0.0 0.00 0.00 0.00 78 1017.6
20260506150116 13 355 3.2 0.0 0.00 0.00 0.00 79 1017.2